[[{"header":{"parameterUnit":"m.s-1","parameterCategory":1,"la1":30.2991,"la2":30.254,"lo1":-89.0895,"lo2":-89.0444,"dy":0.0017,"dx":0.0017,"nx":28,"ny":28,"refTime":"2025-07-10T09:00:00:Z","depth":0,"parameterNumber":2,"parameterNumberName":"U-component_of_WINDS"},"data":[0,0,0,0,0,0,0,0,0,0,0,0,0,0,0,0,0,0,0,0,0,0,0,0,0,0,0,0,0,0,0,0,0,0,0,0,0,0,0,0,0,0,0,0,0,0,0,0,0,0,0,0,0,0,0,0,0,0,2.6741,2.674,0,2.671,2.671,2.6709,2.6653,2.6652,2.6651,2.665,2.6618,2.6618,2.6619,0,0,0,0,0,0,0,0,0,0,0,0,0,2.6752,2.6752,2.6741,2.674,2.674,2.671,2.671,2.6709,2.6653,2.6652,2.6651,2.665,2.6618,2.6618,2.6619,0,0,0,0,0,0,0,0,0,0,0,0,0,2.6737,2.6752,2.6741,2.6709,2.6705,2.671,2.671,2.6709,2.6654,2.6652,2.665,2.6649,2.6618,2.6618,2.6619,2.6652,0,0,2.6619,2.6619,0,0,0,0,0,0,0,0,2.6738,2.6736,2.6714,2.6711,2.6707,2.6684,2.6702,2.669,2.6654,2.6673,2.665,2.6648,2.6641,2.664,2.6637,2.6651,2.6649,2.6619,2.662,2.662,2.662,0,0,0,0,0,0,0,2.6739,2.6737,2.6728,2.6713,2.6709,2.6696,2.6692,2.6699,2.6667,2.6671,2.6667,2.6664,2.6639,2.6637,2.6636,2.6649,2.6619,2.662,2.662,2.662,2.669,2.6692,0,0,0,0,0,0,2.6744,2.6739,2.6729,2.6728,2.6719,2.6697,2.6692,2.6693,2.6666,2.6661,2.6666,2.6662,2.6638,2.6636,2.6635,2.6674,2.662,2.662,2.662,2.6689,2.6691,2.6692,0,0,0,0,0,0,2.6745,2.6744,2.6731,2.6732,2.6729,2.6698,2.6699,2.6693,2.6691,2.6662,2.6656,2.667,2.6636,2.6635,2.6649,2.6672,2.662,2.662,2.6686,2.6689,2.6692,2.6751,0,0,0,0,0,0,2.6745,2.6745,2.6757,2.6733,2.6729,2.6745,2.6701,2.6694,2.6692,2.6686,2.6664,2.6659,2.6635,2.6649,2.6649,2.6671,2.662,2.6684,2.6688,2.6691,2.6747,2.6755,2.6763,0,0,0,0,0,2.6746,2.6775,2.6758,2.6757,2.6744,2.6747,2.6745,2.6716,2.6694,2.6706,2.6688,2.666,2.6669,2.6651,2.6651,2.6673,2.6683,2.6687,2.669,2.6743,2.6754,2.6762,0,0,0,0,0,0,2.6802,2.6771,2.6752,2.6773,2.6763,2.6737,2.6752,2.6728,2.6724,2.6719,2.6684,2.6679,2.6699,2.6687,2.6667,2.6705,2.6672,2.6676,2.6712,2.6722,2.6729,2.6732,2.6621,0,0,0,0,0,2.6817,2.6822,2.6794,2.6816,2.6811,2.6783,2.6783,2.6762,2.675,2.6745,2.6728,2.6717,2.6718,2.6719,2.6718,2.6745,2.674,2.676,2.6768,2.6775,2.6779,2.6794,2.6803,2.6705,2.6705,2.6705,0,0,2.6848,2.6831,2.6836,2.6826,2.6816,2.6822,2.6779,2.6787,2.6791,2.6746,2.6759,2.6746,2.6732,2.6753,2.6762,2.6744,2.6805,2.678,2.6785,2.6786,2.6799,2.6808,2.6817,2.6708,2.6707,2.6707,0,0,2.6907,2.6895,2.6912,2.6903,2.6888,2.6868,2.6873,2.685,2.684,2.6853,2.6819,2.6824,2.6825,2.6817,2.6813,2.6871,2.6846,2.6871,2.6913,2.6928,2.6935,2.6942,2.6964,2.6972,2.6875,2.6876,2.6876,0,2.6947,2.6955,2.6924,2.6934,2.6931,2.6891,2.6909,2.6901,2.6887,2.6886,2.6866,2.6868,2.6856,2.6876,2.689,2.6888,2.6892,2.6874,2.6937,2.6943,2.6949,2.6969,2.6978,2.6879,2.6879,2.6878,2.6878,0,2.7005,2.7011,2.7027,2.7015,2.7013,2.7027,2.6999,2.7002,2.6981,2.6965,2.6978,2.6962,2.6958,2.6961,2.694,2.6978,2.6968,2.6943,2.6909,2.6962,2.6981,2.6988,2.6884,2.6883,2.6882,2.6881,0,0,2.7099,2.707,2.7076,2.7071,2.7052,2.7056,2.7068,2.7064,2.7068,2.7059,2.707,2.7073,2.705,2.7046,2.7024,2.7037,2.7086,2.7011,2.701,2.7027,2.7128,2.7147,2.7157,2.7069,2.707,2.7071,2.7129,0,2.7155,2.7175,2.7148,2.7174,2.718,2.7142,2.7153,2.7143,2.7128,2.7131,2.7114,2.7117,2.7086,2.7084,2.7095,2.7078,2.7106,2.7073,2.7079,2.7079,2.7084,2.7166,2.7186,2.7242,2.7136,2.7137,2.7138,0,2.7223,2.7219,2.7245,2.7226,2.7227,2.7238,2.7232,2.7235,2.7223,2.7211,2.7207,2.7182,2.7194,2.716,2.7176,2.7155,2.7156,2.7148,2.7149,2.7149,2.7113,2.7169,2.7259,2.7268,2.7149,2.7148,2.7147,0,2.729,2.7291,2.7307,2.7303,2.7281,2.7289,2.728,2.7266,2.7266,2.7262,2.7261,2.7258,2.7257,2.7255,2.723,2.7208,2.725,2.7214,2.7241,2.7242,2.7252,2.7252,2.7344,2.7251,2.7251,2.7251,2.7251,0,2.7356,2.7375,2.7337,2.7348,2.7367,2.7336,2.7357,2.7344,2.7332,2.734,2.7306,2.7314,2.728,2.7285,2.7265,2.7282,2.7281,2.7273,2.7268,2.7276,2.7278,2.7277,2.7273,2.7253,2.7253,2.7252,2.7252,0,2.7435,2.7411,2.7426,2.7404,2.7399,2.7414,2.7395,2.7404,2.7387,2.7397,2.7397,2.7371,2.7374,2.7349,2.7348,2.7334,2.7362,2.7349,2.7366,2.7362,2.7391,2.7389,2.7487,2.7499,2.7398,2.7399,2.7399,0,2.7479,2.7493,2.7472,2.7474,2.7467,2.7472,2.7471,2.7442,2.7443,2.7431,2.7442,2.7442,2.7442,2.7449,2.743,2.7429,2.7417,2.7451,2.7417,2.7426,2.7419,2.7419,2.7421,2.7459,2.746,2.7461,2.7462,0,2.7561,2.7548,2.7549,2.7546,2.7547,2.7543,2.7537,2.7542,2.7509,2.7512,2.7516,2.7515,2.7515,2.7516,2.7512,2.7503,2.7478,2.7473,2.748,2.7489,2.7499,2.7495,2.7387,2.7471,2.747,2.747,2.7469,2.7469,2.7625,2.7635,2.7622,2.7625,2.7617,2.7613,2.762,2.7604,2.7607,2.7604,2.7586,2.7593,2.7582,2.7573,2.7567,2.7572,2.7556,2.7565,2.7567,2.757,2.7576,2.7497,2.7571,2.7571,2.7571,2.757,2.757,0,2.7706,2.7696,2.7698,2.7691,2.7693,2.7669,2.7661,2.7665,2.7672,2.7663,2.7663,2.7668,2.767,2.7651,2.7651,2.7659,2.7647,2.766,2.7659,2.7658,2.759,2.7585,2.7669,2.7669,2.7669,2.7669,2.7669,2.7669,2.7748,2.7765,2.7751,2.7764,2.7754,2.7761,2.7759,2.7755,2.7748,2.7755,2.7756,2.7744,2.7732,2.773,2.7731,2.7725,2.7727,2.7744,2.7735,2.7672,2.7663,2.7653,2.7649,2.7745,2.7745,2.7802,2.7803,2.7803]},{"header":{"parameterUnit":"m.s-1","parameterCategory":1,"la1":30.2991,"la2":30.254,"lo1":-89.0895,"lo2":-89.0444,"dy":0.0017,"dx":0.0017,"nx":28,"ny":28,"refTime":"2025-07-10T09:00:00:Z","depth":0,"parameterNumber":3,"parameterNumberName":"V-component_of_WINDS"},"data":[0,0,0,0,0,0,0,0,0,0,0,0,0,0,0,0,0,0,0,0,0,0,0,0,0,0,0,0,0,0,0,0,0,0,0,0,0,0,0,0,0,0,0,0,0,0,0,0,0,0,0,0,0,0,0,0,0,0,-0.3242,-0.3242,0,-0.3241,-0.3241,-0.3241,-0.3203,-0.3202,-0.3201,-0.3201,-0.3202,-0.3202,-0.3203,0,0,0,0,0,0,0,0,0,0,0,0,0,-0.3214,-0.3215,-0.3242,-0.3242,-0.3242,-0.3241,-0.3241,-0.3241,-0.3204,-0.3202,-0.3201,-0.32,-0.3201,-0.3202,-0.3203,0,0,0,0,0,0,0,0,0,0,0,0,0,-0.3221,-0.3215,-0.3242,-0.3223,-0.3221,-0.3241,-0.3241,-0.3241,-0.3204,-0.3202,-0.3201,-0.32,-0.3201,-0.3202,-0.3204,-0.3242,0,0,-0.3208,-0.3209,0,0,0,0,0,0,0,0,-0.3221,-0.3222,-0.3226,-0.3224,-0.3223,-0.3221,-0.3232,-0.3241,-0.3204,-0.3211,-0.3201,-0.3199,-0.3209,-0.321,-0.3213,-0.3242,-0.3242,-0.3208,-0.3209,-0.321,-0.321,0,0,0,0,0,0,0,-0.322,-0.3222,-0.3242,-0.3226,-0.3224,-0.3216,-0.3215,-0.3233,-0.3218,-0.321,-0.3207,-0.3208,-0.3208,-0.3212,-0.3213,-0.3242,-0.3208,-0.3209,-0.321,-0.3211,-0.3305,-0.3306,0,0,0,0,0,0,-0.3222,-0.3222,-0.3242,-0.3242,-0.3218,-0.3217,-0.3217,-0.3223,-0.3218,-0.3216,-0.3209,-0.3206,-0.321,-0.3211,-0.3213,-0.3259,-0.321,-0.3211,-0.3212,-0.3303,-0.3305,-0.3307,0,0,0,0,0,0,-0.3222,-0.3224,-0.3242,-0.3231,-0.3233,-0.3219,-0.3227,-0.3224,-0.3227,-0.3217,-0.3214,-0.3215,-0.3209,-0.3211,-0.3235,-0.3258,-0.3211,-0.3213,-0.3301,-0.3304,-0.3306,-0.335,0,0,0,0,0,0,-0.3221,-0.3224,-0.3238,-0.3232,-0.3233,-0.3264,-0.3228,-0.3225,-0.323,-0.3226,-0.3222,-0.322,-0.3208,-0.3233,-0.3237,-0.3259,-0.3214,-0.3299,-0.3302,-0.3305,-0.3347,-0.3354,-0.336,0,0,0,0,0,-0.322,-0.325,-0.3239,-0.3241,-0.325,-0.3265,-0.3266,-0.3251,-0.3232,-0.3246,-0.324,-0.322,-0.3255,-0.3236,-0.324,-0.3263,-0.3298,-0.3301,-0.3305,-0.3344,-0.3352,-0.336,0,0,0,0,0,0,-0.326,-0.3249,-0.3236,-0.3265,-0.3266,-0.3259,-0.3276,-0.326,-0.3267,-0.3263,-0.3244,-0.3244,-0.3272,-0.327,-0.3249,-0.3301,-0.3273,-0.3278,-0.3301,-0.331,-0.3316,-0.3316,-0.3215,0,0,0,0,0,-0.3272,-0.3284,-0.3274,-0.3301,-0.3302,-0.3289,-0.3295,-0.3283,-0.3284,-0.3284,-0.328,-0.3282,-0.3293,-0.3301,-0.3311,-0.3346,-0.3346,-0.3364,-0.3371,-0.3376,-0.3381,-0.3401,-0.341,-0.3319,-0.3319,-0.3319,0,0,-0.3297,-0.3292,-0.3301,-0.3309,-0.3308,-0.3323,-0.329,-0.3306,-0.3317,-0.3287,-0.331,-0.3307,-0.3308,-0.3339,-0.3352,-0.3338,-0.3406,-0.3381,-0.3386,-0.3387,-0.3406,-0.3414,-0.3422,-0.3322,-0.3321,-0.3321,0,0,-0.335,-0.3347,-0.337,-0.337,-0.337,-0.3361,-0.3367,-0.3362,-0.3359,-0.3382,-0.3361,-0.3374,-0.3393,-0.3396,-0.34,-0.3456,-0.3439,-0.346,-0.3495,-0.3515,-0.3522,-0.3528,-0.355,-0.3558,-0.3464,-0.3464,-0.3464,0,-0.3381,-0.3401,-0.3383,-0.3401,-0.3406,-0.338,-0.3403,-0.3405,-0.3408,-0.3413,-0.3397,-0.3422,-0.3421,-0.3453,-0.3467,-0.347,-0.3477,-0.346,-0.3522,-0.3528,-0.3534,-0.3554,-0.3562,-0.3467,-0.3466,-0.3466,-0.3466,0,-0.344,-0.3455,-0.3473,-0.3477,-0.3484,-0.3504,-0.3491,-0.35,-0.3489,-0.3482,-0.3507,-0.3505,-0.3515,-0.3522,-0.351,-0.3552,-0.3544,-0.3525,-0.3497,-0.3546,-0.3564,-0.3572,-0.347,-0.3469,-0.3469,-0.3468,0,0,-0.3518,-0.3513,-0.352,-0.3522,-0.3521,-0.3532,-0.3552,-0.3562,-0.3571,-0.3574,-0.3592,-0.361,-0.3594,-0.3598,-0.3587,-0.3604,-0.3651,-0.3584,-0.3584,-0.3598,-0.37,-0.3715,-0.3724,-0.364,-0.3642,-0.3643,-0.37,0,-0.357,-0.3604,-0.3589,-0.3625,-0.3639,-0.3615,-0.3633,-0.3635,-0.3631,-0.3643,-0.3637,-0.3651,-0.3628,-0.363,-0.3647,-0.3642,-0.3672,-0.3638,-0.3658,-0.3659,-0.3659,-0.3733,-0.3748,-0.3803,-0.3707,-0.3709,-0.371,0,-0.3635,-0.3642,-0.3679,-0.3677,-0.3682,-0.3699,-0.3707,-0.3718,-0.3721,-0.3716,-0.3722,-0.3708,-0.3729,-0.3701,-0.3731,-0.3708,-0.3716,-0.3715,-0.3717,-0.3719,-0.3688,-0.3738,-0.3819,-0.3828,-0.3721,-0.372,-0.3719,0,-0.369,-0.3708,-0.3733,-0.3735,-0.3733,-0.3745,-0.3745,-0.3746,-0.3753,-0.3761,-0.3766,-0.3777,-0.3783,-0.3792,-0.3781,-0.3761,-0.3813,-0.3784,-0.3811,-0.3812,-0.3824,-0.3823,-0.3908,-0.3827,-0.3827,-0.3827,-0.3827,0,-0.375,-0.3774,-0.3757,-0.3773,-0.38,-0.3784,-0.3811,-0.3808,-0.381,-0.3826,-0.3806,-0.3821,-0.3805,-0.382,-0.3812,-0.3839,-0.3841,-0.3839,-0.3837,-0.3842,-0.3842,-0.3847,-0.3843,-0.3829,-0.3829,-0.3828,-0.3828,0,-0.3815,-0.3805,-0.3831,-0.3827,-0.3827,-0.3847,-0.3844,-0.3859,-0.3853,-0.3873,-0.3877,-0.3868,-0.3884,-0.3874,-0.3891,-0.3885,-0.3921,-0.3913,-0.3921,-0.3919,-0.3947,-0.3945,-0.4039,-0.4051,-0.3962,-0.3962,-0.3963,0,-0.3855,-0.3873,-0.3871,-0.388,-0.3881,-0.3895,-0.3903,-0.3889,-0.3897,-0.3903,-0.3918,-0.3932,-0.3943,-0.397,-0.3966,-0.3978,-0.3971,-0.4003,-0.3973,-0.3978,-0.3973,-0.3973,-0.3975,-0.401,-0.4011,-0.4012,-0.4012,0,-0.3927,-0.3921,-0.3932,-0.3942,-0.3952,-0.3959,-0.3965,-0.3973,-0.3959,-0.397,-0.3987,-0.3995,-0.4012,-0.4027,-0.4039,-0.4039,-0.4025,-0.4022,-0.4029,-0.4034,-0.4038,-0.4038,-0.3938,-0.402,-0.4019,-0.4018,-0.4018,-0.4018,-0.3981,-0.3997,-0.3998,-0.4012,-0.4015,-0.4021,-0.4036,-0.4032,-0.4045,-0.4057,-0.4048,-0.4068,-0.4072,-0.4086,-0.4089,-0.4105,-0.4092,-0.4102,-0.4105,-0.4108,-0.4113,-0.4035,-0.4107,-0.4107,-0.4106,-0.4106,-0.4106,0,-0.4053,-0.4053,-0.4066,-0.4075,-0.4086,-0.407,-0.4076,-0.4087,-0.4104,-0.4109,-0.412,-0.414,-0.4155,-0.4153,-0.4167,-0.418,-0.4174,-0.4184,-0.4184,-0.4185,-0.4123,-0.4115,-0.419,-0.419,-0.4189,-0.4189,-0.4189,-0.4189,-0.4092,-0.4118,-0.4113,-0.4141,-0.4141,-0.416,-0.4165,-0.4171,-0.4175,-0.4198,-0.421,-0.4208,-0.4211,-0.4225,-0.4239,-0.4238,-0.4244,-0.4258,-0.4255,-0.4197,-0.4189,-0.4181,-0.4174,-0.4259,-0.4259,-0.4315,-0.4316,-0.4316]}]]